User: anonymous   Login
Location: Unspecified
(0.0000°N, 0.0000°E)
Time: 02:06:02
(UTC+02:00)
Language:

Landsat 4 - Orbit

View from above orbital plane
View from above orbital plane
View from above satellite
View from above satellite

Ground track
Ground track

The orbit data is extracted from the following two-line orbital elements,

1 13367U 82072A   16148.96338439 +.00000958 +00000-0 +55282-4 0  9992
2 13367 098.2000 274.1214 0014838 072.9160 043.7264 15.15033429251996
Epoch (UTC): 27 May 2016 23:07:16
Eccentricity: 0.0014838
inclination: 98.2000°
perigee height: 510 km
apogee height: 531 km
right ascension of ascending node: 274.1214°
argument of perigee: 72.9160°
revolutions per day: 15.15033429
mean anomaly at epoch: 43.7264°
orbit number at epoch: 25199

The dashed part of the orbit path shows where the satellite is in the earth's shadow,  

DLR